Location: Muenchen
(48.1800°N, 11.5800°E)
Time: 19:16:21
(UTC+01:00)

ISS - Visible Passes

Search period start: 04 December 2016 00:00
Search period end: 14 December 2016 00:00
Orbit: 401 x 410 km, 51.6° (Epoch: 04 December)

Date Brightness Start Highest point End Pass type
(mag) Time Alt. Az. Time Alt. Az. Time Alt. Az.
04 Dec -3.4 18:17:54 10° WSW 18:21:11 75° SSE 18:21:18 74° SE visible
05 Dec -2.8 17:26:06 10° SW 17:29:17 48° SSE 17:31:28 18° E visible
05 Dec -1.0 19:02:34 10° W 19:04:09 25° W 19:04:09 25° W visible
06 Dec -3.2 18:10:29 10° WSW 18:13:46 67° NNW 18:14:16 56° NNE visible
07 Dec -3.3 17:18:28 10° WSW 17:21:46 87° SSE 17:24:21 16° ENE visible
07 Dec -1.2 18:55:18 10° WNW 18:57:01 26° WNW 18:57:01 26° WNW visible
08 Dec -2.8 18:03:10 10° W 18:06:23 49° N 18:07:05 40° NNE visible
09 Dec -3.1 17:11:02 10° W 17:14:18 60° NNW 17:17:08 13° ENE visible
09 Dec -1.5 18:47:56 10° WNW 18:49:49 28° NW 18:49:49 28° NW visible
10 Dec -2.7 17:55:49 10° WNW 17:59:00 43° N 17:59:52 34° NE visible
10 Dec 0.2 19:32:29 10° WNW 19:32:32 10° WNW 19:32:32 10° WNW visible
11 Dec -2.8 17:03:40 10° W 17:06:53 46° N 17:09:56 11° ENE visible
11 Dec -1.9 18:40:26 10° WNW 18:42:37 35° NW 18:42:37 35° NW visible
12 Dec -2.9 17:48:22 10° WNW 17:51:35 46° N 17:52:43 31° ENE visible
12 Dec -0.1 19:24:55 10° WNW 19:25:23 13° WNW 19:25:23 13° WNW visible
13 Dec -2.7 16:56:14 10° WNW 16:59:25 43° N 17:02:36 10° ENE visible
13 Dec -2.8 18:32:51 10° WNW 18:35:32 55° NW 18:35:32 55° NW visible
